Flag for Netherlands Weather past 2 weeks in Emmen, Netherlands

Now
54 °F

Cool.


Feels Like: 53 °F
Forecast: 49 / 52 °F
Wind: 5 mph from Southwest

Location: Meppen

Current Time: Oct 23, 2014 at 10:38:35 PM

Latest Report: Oct 23, 2014 at 10:00 PM


Visibility: 6 mi

Pressure: 30.16 "Hg

Humidity: 82%

Dew point: 49 °F

Location of EmmenLocation

Historic Weather in Emmen — Graph

°F

Emmen temperature yesterday

Maximum temperature yesterday: 52 °F (at 1:00 PM)
Minimum temperature yesterday: 46 °F (at 9:00 AM)
Average temperature yesterday: 49 °F

Past Weeks' High & Low Weather Summary

 TemperatureHumidityPressure
High72 °F (Oct 19, 1:00 PM)96% (Oct 11, 1:00 AM)30.19 "Hg (Oct 11, 1:00 AM)
Low43 °F (Oct 11, 7:00 AM)58% (Oct 14, 2:00 PM)29.38 "Hg (Oct 21, 4:00 PM)
Average56 °F84%29.84 "Hg
* Reported Oct 8 9:00 PM — Oct 23 9:00 PM, Emmen, Weather by CustomWeather, © 2014

Note: Actual official high and low records may vary slightly from our data, if they occured in-between our weather recording intervals... More about our weather records

Advertising

Emmen weather history for previous 24 hours

 ConditionsComfort  
Time TempWeatherWind HumidityBarometerVisibility
9:00 PM
Oct 23
54 °FCool.3 mph82%30.15 "Hg6 mi
7:00 PM54 °FCool.2 mph83%30.15 "Hg6 mi
6:00 PM54 °FCool.3 mph82%30.16 "Hg6 mi
4:00 PM54 °FOvercast.3 mph83%30.16 "Hg6 mi
3:00 PM54 °FFog.3 mph85%30.16 "Hg4 mi
2:00 PM52 °FFog.5 mph89%30.17 "Hg3 mi
1:00 PM51 °FLow clouds.5 mph93%30.18 "Hg2 mi
12:00 PM50 °FRain. Low clouds.3 mph92%30.19 "Hg2 mi
10:00 AM49 °FFog.2 mph93%30.18 "Hg2 mi
9:00 AM49 °FLow clouds.3 mph94%30.17 "Hg3 mi
7:00 AM49 °FRain. Overcast.3 mph89%30.15 "Hg7 mi
6:00 AM47 °FOvercast.2 mph89%30.15 "Hg19 mi
4:00 AM45 °FPassing clouds.2 mph90%30.15 "Hg7 mi
3:00 AM45 °FCool.2 mph92%30.15 "Hg7 mi
1:00 AM47 °FCool.2 mph85%30.14 "Hg8 mi
12:00 AM48 °FCool.2 mph82%30.13 "Hg7 mi
10:00 PM
Oct 22
49 °FCool.2 mph73%30.12 "Hg7 mi
Weather by CustomWeather, © 2014

See weather overviewHow to use our weather pages